Printer-friendly version
Follow the MPC on Twitter Follow the MPC on Facebook The MPC blog
Minor Planet Center

MPEC 2010-A67 : 2010 AE40

The following Minor Planet Electronic Circular may be linked-to from your own Web pages, but must not otherwise be redistributed electronically.

A form allowing access to any MPEC is at the bottom of this page.


Read MPEC 2010-A66 Read MPEC 2010-A68


M.P.E.C. 2010-A67                                Issued 2010 Jan. 13, 14:51 UT

     The Minor Planet Electronic Circulars contain information on unusual
         minor planets and routine data on comets.  They are published
   on behalf of Commission 20 of the International Astronomical Union by the
          Minor Planet Center, Smithsonian Astrophysical Observatory,
                          Cambridge, MA 02138, U.S.A.

             Prepared using the Tamkin Foundation Computer Network

                              MPC@CFA.HARVARD.EDU
          URL http://www.cfa.harvard.edu/iau/mpc.html  ISSN 1523-6714

                                   2010 AE40

Observations:
     K10A40E* C2010 01 12.33589 09 08 22.20 +25 54 57.8          18.7 V EA067703
     K10A40E  C2010 01 12.34462 09 08 18.02 +25 51 41.6          18.8 V EA067703
     K10A40E  C2010 01 12.35338 09 08 13.88 +25 48 24.1          18.7 V EA067703
     K10A40E  C2010 01 12.36213 09 08 09.78 +25 45 08.6          18.7 V EA067703
     K10A40E  C2010 01 12.44315 09 07 31.36 +25 14 38.0          18.7 R EA067H01
     K10A40E  C2010 01 12.44756 09 07 29.32 +25 12 58.2          18.6 R EA067H01
     K10A40E  C2010 01 12.45386 09 07 26.46 +25 10 36.1          18.9 R EA067H01
     K10A40E  C2010 01 12.46003 09 07 23.60 +25 08 16.5          18.4 R EA067H01
     K10A40E  C2010 01 12.47610 09 07 16.60 +25 02 20.1          19.6 R EA067926
     K10A40E  C2010 01 12.47777 09 07 15.81 +25 01 42.3          19.2 R EA067926
     K10A40E  C2010 01 12.47942 09 07 15.04 +25 01 05.5          19.4 R EA067926
     K10A40E  C2010 01 13.19173 09 02 44.68 +20 38 37.0          19.2 R EA067854
     K10A40E  C2010 01 13.19516 09 02 43.24 +20 37 22.7          18.7 R EA067854
     K10A40E KC2010 01 13.20656 09 02 33.77 +20 35 43.9          19.1 V EA067I20
     K10A40E KC2010 01 13.21253 09 02 31.27 +20 33 34.4          19.2 V EA067I20
     K10A40E KC2010 01 13.22941 09 02 24.03 +20 27 29.9          18.9 V EA067I20
     K10A40E KC2010 01 13.23723 09 02 20.77 +20 24 40.9          19.0 V EA067I20
     K10A40E  C2010 01 13.27402 09 02 10.60 +20 09 07.5          18.6 R EA067H01
     K10A40E  C2010 01 13.27871 09 02 08.64 +20 07 26.6          18.6 R EA067H01
     K10A40E  C2010 01 13.28215 09 02 07.22 +20 06 12.9          18.6 R EA067H01
     K10A40E  C2010 01 13.28663 09 02 05.34 +20 04 36.6          18.6 R EA067H01
     K10A40E  C2010 01 13.29117 09 02 03.44 +20 02 58.8          18.6 R EA067H01
     K10A40E  C2010 01 13.34627309 01 38.05 +19 43 02.6          18.6 V EA067H21
     K10A40E  C2010 01 13.34947309 01 36.72 +19 41 53.6          18.6 V EA067H21
     K10A40E  C2010 01 13.35382509 01 34.93 +19 40 19.6          18.6 V EA067H21

Observer details:
703 Catalina Sky Survey.  Observer S. M. Larson.  Measurers J. D. Ahern,
    E. C. Beshore, A. Boattini, G. J. Garradd, A. R. Gibbs, A. D. Grauer,
    R. E. Hill, R. A. Kowalski, S. M. Larson, R. H. McNaught.  0.68-m Schmidt
    + CCD.
854 Sabino Canyon Observatory, Tucson.  Observer J. E. McGaha.  0.36-m f/10.0
    Schmidt-Cassegrain + CCD.
926 Tenagra II Observatory.  Observers P. R. Holvorcem, M. Schwartz.  Measurer
    P. R. Holvorcem.  0.81-m f/7 Ritchey-Chretien + CCD.
H01 Magdalena Ridge Observatory, Socorro.  Observer W. H. Ryan.  2.4-m f/8.9
    reflector + CCD.
H21 Astronomical Research Observatory, Westfield.  Observer R. Holmes.
    Measurer S. Foglia.
I20 Rio Cuarto.  Observer F. D. Mazzone.  0.20-m f/4 Schmidt-Newtonian + CCD.

Orbital elements:
2010 AE40                                                Earth MOID = 0.0629 AU
Epoch 2010 Jan. 4.0 TT = JDT 2455200.5                  MPC
M   4.61154              (2000.0)            P               Q
n   0.38603774     Peri.  155.42688     -0.02653172     -0.94250660
a   1.8680258      Node   294.58698     +0.84584492     +0.15644129
e   0.4536716      Incl.   21.49064     +0.53276865     -0.29530904
P   2.55           H   23.8           G   0.15           U   7
Residuals in seconds of arc
100112 703  0.4+  0.0     100112 926  0.0   0.3-    100113 H01  0.1-  0.2-
100112 703  0.3-  0.1-    100112 926  0.2-  0.2+    100113 H01  0.0   0.0
100112 703  0.3-  0.7-    100113 854  0.6+  0.3+    100113 H01  0.2-  0.0
100112 703  0.2+  0.5+    100113 854  0.4-  0.3-    100113 H01  0.3-  0.3-
100112 H01  0.1-  0.2+    100113 I20  0.1-  0.2-    100113 H21  0.1+  0.2+
100112 H01  0.2-  0.1+    100113 I20  0.4+  0.5-    100113 H21  0.0   0.2+
100112 H01  0.2+  0.3+    100113 I20  0.5-  0.2+    100113 H21  0.1+  0.0
100112 H01  0.2-  0.1+    100113 I20  0.4+  0.5+
100112 926  0.4+  0.2-    100113 H01  0.0   0.0

Ephemeris:
2010 AE40                a,e,i = 1.87, 0.45, 21                  q = 1.0206
Date    TT    R. A. (2000) Decl.     Delta      r     Elong.  Phase     V
2010 01 14    08 57.78   +15 54.5    0.0707   1.051   161.2    17.6    19.1
2010 01 19    08 35.93   -06 43.6    0.0917   1.066   151.7    26.0    19.9
2010 01 24    08 22.70   -19 10.7    0.122    1.083   141.5    34.5    20.8
2010 01 29    08 14.28   -25 56.2    0.157    1.103   135.4    38.9    21.5
2010 02 03    08 08.90   -29 43.9    0.195    1.124   131.6    40.9    22.1

Sonia Keys                   (C) Copyright 2010 MPC           M.P.E.C. 2010-A67

Read MPEC 2010-A66 Read MPEC 2010-A68


MPEC number:

Enter an MPEC number in one of the following forms:

  • 1997-B01 (the full form)
  • J97B01 (the packed version of the full form)
  • B01 (the abbreviated form)

Valid HTML 4.01!